Regional Weather Roundup
Issued by NWS Albany, NY

Home | Current Version | Previous Version | Graphics & Text | Print | Product List | Glossary Off
Versions: 1 2 3 4 5 6 7 8 9 10 11 12 13 14 15 16 17 18 19 20 21 22 23 24 25 26 27 28

000
ASUS41 KALY 041810
RWRALY

NEW YORK STATE HOURLY WEATHER ROUNDUP
NATIONAL WEATHER SERVICE ALBANY NY
100 PM EST SUN DEC 04 2016

NOTE: "FAIR" INDICATES FEW OR NO CLOUDS BELOW 12,000 FEET WITH NO
SIGNIFICANT WEATHER AND/OR NO OBSTRUCTIONS TO VISIBILITY.

NYZ032-033-038>043-046>054-057>066-NYZ062>081-082-084-041900-
EAST


CITY           SKY/WX    TMP DP  RH WIND       PRES   REMARKS
ALBANY         PTSUNNY   34  20  56 W5        30.26S WCI  30
GLENS FALLS    CLOUDY    36  20  52 NW8       30.24F WCI  30
POUGHKEEPSIE   SUNNY     40  22  48 N9        30.21F WCI  34
NEWBURGH       SUNNY     41  25  52 VRB5      30.21F
MONTGOMERY     SUNNY     44  24  45 NE7       30.18F
WHITE PLAINS   SUNNY     42  21  43 NW13      30.18F
ISLIP          MOSUNNY   44  24  45 N9        30.18F
NEW YORK CITY  MOSUNNY   46  22  38 NW8       30.19F
CENTRAL PARK   SUNNY     45  20  36 CALM      30.21F
$$

NYZ005>009-017-018-044>046-055-056-041900-
CENTRAL


CITY           SKY/WX    TMP DP  RH WIND       PRES   REMARKS
FULTON         PTSUNNY   35  23  61 CALM      30.25F
SYRACUSE       MOSUNNY   35  23  61 W3        30.25F
ROME           MOSUNNY   31  21  66 W6        30.28F WCI  25
ELMIRA         PTSUNNY   41  22  46 N6        30.21F
BINGHAMTON     PTSUNNY   35  23  61 NW8       30.17F WCI  29
MONTICELLO     SUNNY     37  19  48 NW8       30.18S WCI  31
$$

NYZ026>034-041>043-087-041900-
NORTH


CITY           SKY/WX    TMP DP  RH WIND       PRES   REMARKS
WATERTOWN      PTSUNNY   31  20  63 CALM      30.27F
FORT DRUM      NOT AVBL
OGDENSBURG     PTSUNNY   32  22  67 W3        30.28S
MASSENA        CLOUDY    32  19  58 W6        30.28F WCI  26
SARANAC LAKE   CLOUDY    24  19  81 CALM      30.16F
PLATTSBURGH    PTSUNNY   35  20  54 NW8       30.24F WCI  29
$$

NYZ001>004-010>016-019>021-085-041900-
WEST


CITY           SKY/WX    TMP DP  RH WIND       PRES   REMARKS
NIAGARA FALLS  PTSUNNY   41  29  62 E9        30.19F
BUFFALO        PTSUNNY   40  29  64 E9        30.18F WCI  34
DUNKIRK        CLOUDY    39  31  72 SE6       30.19F WCI  35
JAMESTOWN      CLOUDY    36  28  75 CALM      30.15F
WELLSVILLE     PTSUNNY   35  24  64 NE3       30.16F
ROCHESTER      PTSUNNY   39  27  62 VRB3      30.23F
PENN YAN       CLOUDY    38  24  57 NW8       30.22F WCI  32
$$

             KEY
       WCI = WIND CHILL INDEX
       VSB = VISIBILITY
       HX  = HEAT INDEX
$$




USA.gov is the U.S. government's official web portal to all federal, state and local government web resources and services.